This demonstration page uses our WeatherBlox Daily Observations layout. Learn more.

40.92945, -100.16068

Hourly Observations for December 26, 2015

Temp ( °F °C ) Dew Point ( °F °C ) Humidity (%) Winds ( mph kmh ) Pressure ( in mb ) Visibility ( mi km ) Precip ( " mm )
12:15 am 00:15 Cloudy with Light Snow 29 -1.7 27 -2.6 94 94 E 9 15 30.03 1017 1.25 2.011675 0.01 0.254
12:35 am 00:35 Cloudy with Light Snow 29 -1.7 27 -2.6 94 94 E 10 17 30.03 1017 1.5 2.41401 0.02 0.508
12:55 am 00:55 Cloudy with Snow 29 -1.7 27 -2.6 94 94 E 9 15 30 1016 0.5 0.80467 0.03 0.762
1:15 am 01:15 Cloudy with Light Snow 29 -1.8 27 -2.6 94 94 E 9 15 30.03 1017 0.75 1.207005 0.02 0.508
1:35 am 01:35 Cloudy with Light Snow 29 -1.8 27 -2.6 94 94 E 9 15 30 1016 2 3.21868 0.04 1.016
1:55 am 01:55 Cloudy with Light Snow 28 -2 27 -2.8 94 94 E 9 15 30 1016 2.5 4.02335 0.05 1.27
2:15 am 02:15 Cloudy with Light Snow 28 -2.1 27 -3 94 94 E 16 26 29.97 1015 1 1.60934 N/A
2:35 am 02:35 Cloudy 28 -2.2 26 -3.1 94 94 E 14 22 30 1016 7 11.26538 0.01 0.254
2:55 am 02:55 Cloudy 28 -2.1 27 -3 94 94 E 13 20 30 1016 10 16.0934 0.01 0.254
3:15 am 03:15 Cloudy 28 -2 27 -3 93 93 E 14 22 30 1016 10 16.0934 N/A
3:35 am 03:35 Cloudy 28 -2.1 27 -3 94 94 NE 6 9 30.03 1017 7 11.26538 N/A
3:55 am 03:55 Cloudy 28 -2 27 -2.8 94 94 ENE 8 13 30.03 1017 7 11.26538 N/A
4:15 am 04:15 Cloudy 28 -2.3 27 -3 95 95 E 17 28 30 1016 7 11.26538 0.01 0.254
4:35 am 04:35 Cloudy with Mist and Fog 28 -2.3 27 -3 95 95 NW 6 9 30.06 1018 4 6.43736 0.01 0.254
4:55 am 04:55 Cloudy with Light Snow 28 -2.2 27 -3 94 94 NNW 9 15 30.09 1019 4 6.43736 0.01 0.254
5:15 am 05:15 Cloudy 28 -2.3 27 -3 95 95 N 10 17 30.09 1019 7 11.26538 N/A
5:35 am 05:35 Cloudy with Mist and Fog 28 -2.5 26 -3.1 96 96 N 10 17 30.09 1019 5 8.0467 N/A
5:55 am 05:55 Cloudy 28 -2.5 27 -3 96 96 N 13 20 30.09 1019 7 11.26538 0 0
6:15 am 06:15 Cloudy 28 -2.2 27 -2.8 96 96 NE 9 15 30.09 1019 7 11.26538 N/A
6:35 am 06:35 Cloudy with Mist and Fog 28 -2.5 27 -3 96 96 NNE 7 11 30.12 1020 5 8.0467 N/A
6:55 am 06:55 Cloudy with Mist and Fog 28 -2.5 27 -3 96 96 N 8 13 30.12 1020 4 6.43736 N/A
7:15 am 07:15 Cloudy with Mist and Fog 28 -2.5 27 -3 96 96 N 10 17 30.12 1020 4 6.43736 N/A
7:35 am 07:35 Cloudy with Mist and Fog 28 -2.5 27 -3 96 96 N 8 13 30.18 1022 3 4.82802 N/A
7:55 am 07:55 Cloudy with Mist and Fog 28 -2.5 27 -3 96 96 N 10 17 30.18 1022 4 6.43736 N/A
8:15 am 08:15 Cloudy with Mist and Fog 28 -2.3 27 -3 95 95 N 10 17 30.18 1022 5 8.0467 N/A
8:35 am 08:35 Cloudy 28 -2.1 27 -2.7 96 96 N 10 17 30.18 1022 7 11.26538 N/A
8:55 am 08:55 Cloudy 29 -1.9 28 -2.5 96 96 N 9 15 30.21 1023 10 16.0934 N/A
9:15 am 09:15 Cloudy 29 -1.7 28 -2.5 94 94 N 13 20 30.21 1023 10 16.0934 N/A
9:35 am 09:35 Cloudy 29 -1.5 28 -2.5 93 93 N 14 22 30.21 1023 10 16.0934 N/A
9:55 am 09:55 Cloudy 29 -1.5 28 -2.5 93 93 N 10 17 30.21 1023 10 16.0934 N/A
10:15 am 10:15 Cloudy 30 -1.3 27 -2.6 91 91 N 13 20 30.24 1024 10 16.0934 N/A
10:35 am 10:35 Cloudy 30 -1.2 27 -2.6 90 90 N 14 22 30.24 1024 10 16.0934 N/A
10:55 am 10:55 Cloudy 30 -1 27 -2.6 89 89 N 16 26 30.3 1026 10 16.0934 N/A
11:15 am 11:15 Cloudy 30 -1 27 -2.7 88 88 NNW 16 26 30.3 1026 10 16.0934 N/A
11:35 am 11:35 Cloudy 31 -0.6 28 -2.5 87 87 N 21 33 30.3 1026 10 16.0934 N/A
11:55 am 11:55 Cloudy 31 -0.5 28 -2.5 87 87 NNW 21 33 30.27 1025 10 16.0934 N/A
12:15 pm 12:15 Cloudy 31 -0.5 27 -2.6 86 86 N 20 31 30.3 1026 10 16.0934 N/A
12:35 pm 12:35 Cloudy 31 -0.3 28 -2.5 85 85 N 20 31 30.27 1025 10 16.0934 N/A
12:55 pm 12:55 Cloudy 29 -1.4 26 -3.6 85 85 NNW 25 41 30.3 1026 7 11.26538 N/A
1:15 pm 13:15 Cloudy 28 -2.4 25 -4.1 88 88 N 29 46 30.3 1026 7 11.26538 N/A
1:35 pm 13:35 Cloudy 26 -3.1 24 -4.6 90 90 N 28 44 30.33 1027 7 11.26538 N/A
1:55 pm 13:55 Cloudy 26 -3.4 23 -5 89 89 N 24 39 30.33 1027 7 11.26538 N/A
2:15 pm 14:15 Cloudy with Mist and Fog 25 -4 21 -5.9 87 87 N 24 39 30.36 1028 5 8.0467 N/A
2:35 pm 14:35 Cloudy with Mist and Fog 24 -4.3 21 -6.3 86 86 N 28 44 30.36 1028 5 8.0467 N/A
2:55 pm 14:55 Cloudy with Mist and Fog 23 -5 19 -7 86 86 N 28 44 30.36 1028 3 4.82802 N/A
3:15 pm 15:15 Cloudy with Mist and Fog 22 -5.5 19 -7.5 86 86 N 28 44 30.36 1028 2 3.21868 N/A
3:35 pm 15:35 Cloudy with Mist and Fog 22 -5.7 18 -7.8 85 85 N 35 56 30.39 1029 4 6.43736 N/A
3:55 pm 15:55 Cloudy with Mist and Fog 21 -6.1 17 -8.3 85 85 N 31 50 30.39 1029 3 4.82802 N/A
4:15 pm 16:15 Mostly Cloudy with Mist and Fog 20 -6.5 16 -8.8 84 84 N 23 37 30.45 1031 5 8.0467 N/A
4:35 pm 16:35 Partly Cloudy 19 -7 15 -9.5 83 83 N 23 37 30.48 1032 10 16.0934 N/A
4:55 pm 16:55 Cloudy 19 -7.1 15 -9.6 83 83 N 25 41 30.48 1032 10 16.0934 N/A
5:15 pm 17:15 Cloudy 19 -7.2 14 -9.8 82 82 N 20 31 30.5 1033 10 16.0934 N/A
5:35 pm 17:35 Cloudy 19 -7.5 14 -10.1 82 82 N 26 43 30.5 1033 10 16.0934 N/A
5:55 pm 17:55 Cloudy 18 -7.7 13 -10.3 82 82 N 16 26 30.56 1035 10 16.0934 N/A
6:15 pm 18:15 Cloudy 18 -7.7 13 -10.3 82 82 NNW 21 33 30.56 1035 10 16.0934 N/A
6:35 pm 18:35 Cloudy 18 -8 13 -10.5 82 82 NNW 22 35 30.56 1035 10 16.0934 N/A
6:55 pm 18:55 Cloudy 18 -8 13 -10.3 84 84 N 22 35 30.59 1036 7 11.26538 N/A
7:15 pm 19:15 Cloudy 18 -8 14 -10.1 85 85 NNW 25 41 30.59 1036 7 11.26538 N/A
7:35 pm 19:35 Cloudy 18 -8 14 -10.1 85 85 N 23 37 30.59 1036 10 16.0934 N/A
7:55 pm 19:55 Cloudy 18 -7.6 15 -9.6 86 86 N 20 31 30.59 1036 10 16.0934 N/A
8:15 pm 20:15 Cloudy 19 -7.5 15 -9.4 86 86 NNW 20 31 30.56 1035 10 16.0934 N/A
8:35 pm 20:35 Cloudy 19 -7.1 16 -9 86 86 N 21 33 30.59 1036 10 16.0934 N/A
8:55 pm 20:55 Cloudy 19 -7.1 16 -8.7 89 89 N 16 26 30.59 1036 10 16.0934 N/A
9:15 pm 21:15 Cloudy 19 -7 17 -8.5 89 89 N 20 31 30.59 1036 10 16.0934 N/A
9:35 pm 21:35 Cloudy 20 -6.8 17 -8.5 88 88 N 16 26 30.59 1036 10 16.0934 N/A
9:55 pm 21:55 Cloudy 20 -6.6 17 -8.5 87 87 N 21 33 30.59 1036 10 16.0934 N/A
10:15 pm 22:15 Cloudy 20 -6.5 17 -8.4 87 87 N 21 33 30.59 1036 10 16.0934 N/A
10:35 pm 22:35 Cloudy 20 -6.5 17 -8.5 86 86 NNW 18 30 30.62 1037 10 16.0934 N/A
10:55 pm 22:55 Cloudy 20 -6.5 17 -8.6 85 85 NNW 17 28 30.62 1037 10 16.0934 N/A
11:15 pm 23:15 Cloudy 20 -6.5 16 -8.7 85 85 NNW 15 24 30.65 1038 10 16.0934 N/A
11:35 pm 23:35 Cloudy 20 -6.5 16 -8.7 85 85 NNW 16 26 30.65 1038 10 16.0934 N/A
11:55 pm 23:55 Cloudy 20 -6.5 16 -9 83 83 NNW 15 24 30.65 1038 10 16.0934 N/A

Powered by AerisWeather